QPF
0.00 0.00 0.00 0.00 0.00 0.00 0.00 0.00 0.00 0.00 0.00 0.00 0.00 0.00 0.00 0.00 0.00 0.00 0.00 0.00 0.00 0.00 0.00 0.00 0.00 0.00 0.00 0.00 0.00 0.00 0.00 0.00 0.00 0.00 0.00 0.00 0.00 0.00 0.00 0.00 0.00 0.00 0.00 0.00 0.00 0.00 0.00 0.00 0.00
0.00 0.00 0.00 0.00 0.00 0.00 0.00 0.00 0.00 0.00 0.00 0.00 0.01 0.01 0.00 0.00 0.00 0.00 0.00 0.00 0.00 0.00 0.00 0.00 0.00 0.00 0.00 0.00 0.00 0.00 0.00 0.00 0.00 0.00 0.00 0.00 0.00 0.00 0.00 0.00 0.00 0.00 0.00 0.00 0.00 0.00 0.00 0.00 0.00
0.00 0.00 0.00 0.00 0.00 0.00 0.00 0.00 0.00 0.00 0.00 0.01 0.01 0.01 0.00 0.00 0.00 0.00 0.00 0.00 0.00 0.00 0.00 0.00 0.00 0.00 0.00 0.00 0.00 0.00 0.00 0.00 0.00 0.00 0.00 0.00 0.00 0.00 0.00 0.00 0.00 0.00 0.00 0.00 0.00 0.00 0.00 0.00 0.00
0.00 0.00 0.00 0.00 0.00 0.00 0.00 0.00 0.00 0.00 0.00 0.01 0.01 0.00 0.00 0.00 0.00 0.00 0.00 0.00 0.00 0.00 0.00 0.00 0.01 0.01 0.00 0.00 0.00 0.00 0.00 0.00 0.00 0.00 0.00 0.00 0.00 0.00 0.00 0.00 0.00 0.00 0.00 0.00 0.00 0.00 0.00 0.00 0.00
0.00 0.00 0.00 0.00 0.00 0.00 0.00 0.00 0.00 0.00 0.00 0.00 0.00 0.00 0.00 0.00 0.00 0.00 0.00 0.00 0.00 0.00 0.00 0.00 0.02 0.01 0.01 0.00 0.00 0.00 0.00 0.00 0.00 0.00 0.00 0.00 0.00 0.00 0.00 0.00 0.00 0.00 0.00 0.00 0.00 0.00 0.00 0.00 0.00
0.00 0.00 0.00 0.00 0.00 0.00 0.00 0.00 0.00 0.00 0.00 0.00 0.00 0.00 0.00 0.00 0.00 0.00 0.00 0.00 0.00 0.00 0.00 0.00 0.01 0.01 0.01 0.01 0.00 0.00 0.00 0.00 0.00 0.00 0.00 0.00 0.00 0.00 0.00 0.00 0.00 0.00 0.00 0.00 0.00 0.00 0.00 0.00 0.00
0.00 0.00 0.00 0.00 0.00 0.00 0.00 0.00 0.00 0.00 0.00 0.00 0.00 0.00 0.00 0.00 0.00 0.00 0.00 0.00 0.00 0.00 0.00 0.00 0.00 0.01 0.01 0.01 0.00 0.00 0.00 0.00 0.00 0.00 0.00 0.00 0.00 0.00 0.00 0.00 0.00 0.00 0.00 0.00 0.00 0.00 0.00 0.00 0.00
0.00 0.00 0.00 0.00 0.00 0.00 0.00 0.00 0.00 0.00 0.00 0.00 0.00 0.00 0.00 0.00 0.00 0.00 0.00 0.00 0.00 0.00 0.00 0.00 0.00 0.00 0.00 0.00 0.00 0.00 0.00 0.00 0.00 0.00 0.00 0.00 0.00 0.00 0.00 0.00 0.00 0.00 0.00 0.01 0.01 0.01 0.00 0.00 0.00
0.00 0.00 0.00 0.00 0.00 0.00 0.00 0.00 0.00 0.00 0.00 0.00 0.00 0.00 0.00 0.00 0.00 0.00 0.00 0.00 0.00 0.00 0.00 0.00 0.00 0.00 0.00 0.00 0.00 0.00 0.00 0.00 0.00 0.00 0.00 0.00 0.00 0.00 0.00 0.00 0.00 0.00 0.01 0.02 0.02 0.02 0.01 0.00 0.00
0.00 0.00 0.00 0.00 0.00 0.00 0.00 0.00 0.00 0.00 0.00 0.00 0.00 0.00 0.00 0.00 0.00 0.00 0.00 0.00 0.00 0.00 0.00 0.00 0.00 0.00 0.00 0.00 0.00 0.00 0.00 0.00 0.00 0.00 0.00 0.00 0.00 0.00 0.00 0.00 0.00 0.00 0.01 0.02 0.03 0.03 0.02 0.01 0.00
0.00 0.00 0.00 0.00 0.00 0.00 0.00 0.00 0.00 0.00 0.00 0.00 0.00 0.00 0.00 0.00 0.00 0.00 0.00 0.00 0.00 0.00 0.00 0.00 0.00 0.00 0.00 0.00 0.00 0.00 0.00 0.00 0.00 0.00 0.00 0.00 0.00 0.00 0.00 0.00 0.00 0.00 0.01 0.02 0.02 0.02 0.02 0.01 0.00
0.00 0.00 0.00 0.00 0.00 0.00 0.00 0.00 0.00 0.00 0.00 0.00 0.00 0.00 0.00 0.00 0.00 0.00 0.00 0.00 0.01 0.00 0.00 0.00 0.00 0.00 0.00 0.00 0.00 0.00 0.00 0.00 0.00 0.00 0.00 0.00 0.00 0.00 0.00 0.00 0.00 0.00 0.01 0.01 0.01 0.01 0.02 0.02 0.01
0.00 0.00 0.00 0.00 0.00 0.00 0.00 0.00 0.00 0.00 0.00 0.00 0.00 0.00 0.00 0.00 0.00 0.00 0.00 0.00 0.01 0.00 0.00 0.00 0.00 0.00 0.00 0.00 0.00 0.00 0.00 0.00 0.00 0.00 0.00 0.00 0.00 0.00 0.00 0.00 0.00 0.01 0.01 0.01 0.01 0.02 0.03 0.02 0.01
0.00 0.00 0.00 0.00 0.00 0.00 0.00 0.00 0.00 0.00 0.00 0.00 0.00 0.00 0.00 0.00 0.00 0.00 0.00 0.00 0.01 0.01 0.00 0.00 0.00 0.00 0.00 0.00 0.00 0.00 0.00 0.00 0.00 0.00 0.00 0.00 0.00 0.00 0.01 0.01 0.02 0.02 0.02 0.02 0.03 0.04 0.04 0.03 0.01
0.00 0.00 0.00 0.00 0.00 0.00 0.00 0.00 0.00 0.00 0.00 0.00 0.00 0.00 0.00 0.00 0.00 0.00 0.00 0.00 0.00 0.01 0.01 0.00 0.00 0.00 0.00 0.00 0.00 0.00 0.00 0.00 0.00 0.00 0.00 0.00 0.00 0.00 0.01 0.01 0.02 0.03 0.04 0.05 0.07 0.08 0.06 0.04 0.04
0.00 0.00 0.00 0.00 0.00 0.00 0.00 0.00 0.00 0.00 0.00 0.00 0.00 0.00 0.00 0.00 0.00 0.00 0.00 0.00 0.01 0.01 0.02 0.01 0.01 0.00 0.00 0.00 0.00 0.00 0.00 0.00 0.00 0.00 0.00 0.00 0.00 0.01 0.01 0.02 0.03 0.05 0.05 0.07 0.09 0.10 0.07 0.04 0.05
0.00 0.00 0.00 0.00 0.00 0.00 0.00 0.00 0.00 0.00 0.00 0.00 0.00 0.00 0.00 0.00 0.00 0.00 0.01 0.01 0.01 0.01 0.02 0.02 0.02 0.02 0.02 0.01 0.01 0.01 0.01 0.01 0.01 0.01 0.02 0.01 0.02 0.04 0.04 0.04 0.05 0.05 0.06 0.08 0.10 0.10 0.06 0.04 0.05
0.00 0.00 0.00 0.00 0.00 0.00 0.00 0.00 0.00 0.00 0.00 0.00 0.00 0.00 0.00 0.00 0.00 0.00 0.01 0.01 0.01 0.02 0.02 0.03 0.03 0.05 0.07 0.08 0.08 0.08 0.07 0.06 0.06 0.05 0.08 0.09 0.09 0.09 0.08 0.08 0.07 0.07 0.07 0.07 0.08 0.07 0.05 0.04 0.04
0.00 0.00 0.00 0.00 0.00 0.00 0.00 0.00 0.00 0.00 0.00 0.00 0.00 0.00 0.00 0.00 0.00 0.01 0.01 0.01 0.01 0.02 0.03 0.04 0.04 0.07 0.14 0.19 0.23 0.24 0.21 0.18 0.16 0.15 0.17 0.20 0.17 0.14 0.13 0.13 0.12 0.11 0.09 0.08 0.07 0.05 0.03 0.02 0.02
0.00 0.00 0.00 0.00 0.00 0.00 0.00 0.00 0.00 0.00 0.00 0.00 0.00 0.00 0.00 0.00 0.00 0.01 0.01 0.01 0.01 0.01 0.02 0.04 0.09 0.14 0.21 0.31 0.32 0.30 0.29 0.29 0.23 0.19 0.20 0.21 0.20 0.19 0.19 0.19 0.19 0.16 0.12 0.08 0.05 0.04 0.02 0.02 0.01
0.00 0.00 0.00 0.00 0.00 0.00 0.00 0.00 0.00 0.00 0.00 0.00 0.00 0.00 0.00 0.01 0.01 0.01 0.01 0.01 0.01 0.01 0.01 0.03 0.08 0.18 0.29 0.36 0.37 0.36 0.37 0.32 0.25 0.21 0.22 0.24 0.27 0.28 0.24 0.24 0.23 0.20 0.14 0.10 0.07 0.04 0.02 0.01 0.01
0.00 0.00 0.00 0.00 0.00 0.00 0.00 0.00 0.00 0.00 0.00 0.00 0.00 0.00 0.00 0.00 0.00 0.00 0.01 0.02 0.02 0.02 0.03 0.04 0.08 0.13 0.19 0.25 0.32 0.36 0.35 0.31 0.29 0.28 0.28 0.29 0.30 0.32 0.29 0.25 0.21 0.19 0.15 0.11 0.07 0.04 0.02 0.01 0.01
0.00 0.00 0.00 0.00 0.00 0.00 0.00 0.00 0.01 0.01 0.01 0.01 0.01 0.01 0.01 0.01 0.01 0.01 0.01 0.02 0.03 0.02 0.04 0.08 0.09 0.12 0.21 0.29 0.36 0.39 0.37 0.34 0.31 0.30 0.30 0.29 0.27 0.27 0.24 0.20 0.17 0.15 0.11 0.06 0.04 0.02 0.01 0.01 0.01
0.00 0.00 0.00 0.00 0.00 0.00 0.00 0.00 0.01 0.02 0.02 0.02 0.02 0.02 0.02 0.03 0.03 0.02 0.02 0.03 0.04 0.05 0.06 0.08 0.09 0.12 0.22 0.35 0.41 0.43 0.39 0.35 0.33 0.34 0.31 0.29 0.26 0.23 0.20 0.17 0.13 0.10 0.07 0.03 0.02 0.01 0.00 0.00 0.00
0.00 0.00 0.00 0.00 0.00 0.00 0.00 0.01 0.02 0.04 0.03 0.02 0.03 0.03 0.04 0.05 0.06 0.06 0.07 0.07 0.08 0.10 0.11 0.13 0.15 0.17 0.21 0.27 0.33 0.37 0.39 0.37 0.37 0.34 0.32 0.31 0.27 0.23 0.18 0.13 0.11 0.07 0.04 0.02 0.01 0.00 0.00 0.00 0.00
0.00 0.00 0.00 0.00 0.00 0.00 0.01 0.02 0.04 0.04 0.03 0.02 0.02 0.03 0.04 0.06 0.08 0.09 0.11 0.12 0.14 0.15 0.16 0.18 0.22 0.26 0.30 0.33 0.33 0.34 0.37 0.37 0.33 0.31 0.29 0.26 0.23 0.20 0.14 0.10 0.07 0.05 0.02 0.01 0.01 0.00 0.00 0.00 0.00
0.00 0.00 0.00 0.00 0.00 0.00 0.01 0.03 0.05 0.05 0.03 0.03 0.02 0.02 0.03 0.05 0.06 0.08 0.11 0.13 0.15 0.16 0.18 0.20 0.22 0.26 0.32 0.35 0.35 0.33 0.31 0.30 0.28 0.24 0.21 0.20 0.17 0.13 0.09 0.06 0.04 0.03 0.01 0.00 0.00 0.00 0.00 0.00 0.00
0.00 0.00 0.00 0.00 0.00 0.00 0.01 0.03 0.05 0.06 0.05 0.03 0.03 0.03 0.03 0.03 0.04 0.05 0.06 0.07 0.09 0.12 0.14 0.15 0.18 0.21 0.23 0.25 0.26 0.24 0.23 0.22 0.20 0.17 0.14 0.12 0.10 0.08 0.06 0.04 0.03 0.02 0.02 0.01 0.01 0.00 0.00 0.00 0.00
0.00 0.00 0.00 0.00 0.00 0.00 0.00 0.03 0.07 0.08 0.07 0.04 0.03 0.04 0.04 0.03 0.04 0.04 0.04 0.05 0.05 0.07 0.09 0.10 0.11 0.12 0.14 0.16 0.15 0.13 0.12 0.12 0.11 0.10 0.09 0.07 0.06 0.05 0.05 0.04 0.03 0.02 0.02 0.01 0.01 0.00 0.00 0.01 0.01
0.00 0.00 0.00 0.00 0.00 0.00 0.01 0.04 0.09 0.10 0.09 0.06 0.05 0.04 0.05 0.05 0.05 0.06 0.06 0.05 0.05 0.05 0.06 0.06 0.07 0.09 0.11 0.12 0.12 0.11 0.10 0.09 0.09 0.09 0.08 0.08 0.08 0.07 0.06 0.05 0.03 0.02 0.02 0.02 0.02 0.01 0.01 0.01 0.01
MSLP
1010.50 1011.55 1012.79 1014.02 1015.03 1015.66 1015.84 1015.58 1014.98 1014.19 1013.38 1012.71 1012.26 1012.05 1012.05 1012.18 1012.34 1012.46 1012.50 1012.45 1012.37 1012.31 1012.33 1012.45 1012.69 1013.00 1013.36 1013.70 1014.01 1014.27 1014.51 1014.74 1015.02 1015.34 1015.73 1016.16 1016.58 1016.97 1017.27 1017.49 1017.62 1017.70 1017.76 1017.83 1017.93 1018.07 1018.22 1018.38 1018.51
1010.93 1012.13 1013.46 1014.69 1015.62 1016.10 1016.07 1015.58 1014.75 1013.76 1012.80 1012.01 1011.49 1011.26 1011.26 1011.40 1011.60 1011.76 1011.85 1011.88 1011.89 1011.93 1012.06 1012.30 1012.64 1013.06 1013.50 1013.92 1014.28 1014.59 1014.85 1015.11 1015.39 1015.71 1016.09 1016.48 1016.87 1017.21 1017.47 1017.65 1017.75 1017.82 1017.88 1017.96 1018.08 1018.23 1018.39 1018.53 1018.63
1011.49 1012.78 1014.11 1015.27 1016.06 1016.36 1016.13 1015.46 1014.46 1013.35 1012.31 1011.49 1010.97 1010.74 1010.76 1010.93 1011.14 1011.31 1011.43 1011.50 1011.56 1011.67 1011.89 1012.22 1012.67 1013.18 1013.70 1014.18 1014.59 1014.93 1015.21 1015.47 1015.75 1016.05 1016.39 1016.75 1017.09 1017.37 1017.59 1017.74 1017.83 1017.90 1017.98 1018.10 1018.25 1018.43 1018.60 1018.73 1018.81
1012.16 1013.45 1014.71 1015.73 1016.34 1016.44 1016.03 1015.21 1014.13 1012.98 1011.96 1011.18 1010.71 1010.54 1010.59 1010.78 1010.99 1011.16 1011.28 1011.35 1011.44 1011.59 1011.86 1012.26 1012.78 1013.35 1013.92 1014.45 1014.89 1015.25 1015.54 1015.79 1016.05 1016.33 1016.63 1016.94 1017.24 1017.49 1017.67 1017.80 1017.90 1017.99 1018.11 1018.26 1018.46 1018.67 1018.87 1019.01 1019.09
1012.87 1014.10 1015.21 1016.03 1016.43 1016.34 1015.78 1014.87 1013.77 1012.66 1011.72 1011.05 1010.68 1010.59 1010.70 1010.91 1011.12 1011.27 1011.37 1011.43 1011.51 1011.68 1011.98 1012.41 1012.96 1013.56 1014.16 1014.70 1015.15 1015.51 1015.79 1016.03 1016.27 1016.53 1016.81 1017.09 1017.36 1017.59 1017.77 1017.90 1018.01 1018.13 1018.28 1018.48 1018.72 1018.97 1019.19 1019.35 1019.44
1013.57 1014.66 1015.58 1016.17 1016.34 1016.06 1015.38 1014.43 1013.37 1012.37 1011.56 1011.04 1010.80 1010.82 1010.99 1011.22 1011.42 1011.56 1011.62 1011.66 1011.73 1011.90 1012.20 1012.64 1013.19 1013.79 1014.38 1014.91 1015.34 1015.68 1015.95 1016.18 1016.41 1016.66 1016.94 1017.22 1017.49 1017.73 1017.91 1018.06 1018.19 1018.34 1018.52 1018.74 1019.01 1019.28 1019.52 1019.71 1019.81
1014.18 1015.09 1015.78 1016.12 1016.07 1015.63 1014.88 1013.93 1012.94 1012.07 1011.43 1011.06 1010.97 1011.08 1011.31 1011.56 1011.77 1011.88 1011.93 1011.96 1012.02 1012.18 1012.47 1012.90 1013.43 1014.00 1014.56 1015.05 1015.45 1015.77 1016.02 1016.25 1016.49 1016.76 1017.06 1017.37 1017.67 1017.93 1018.14 1018.31 1018.46 1018.61 1018.80 1019.02 1019.28 1019.55 1019.80 1019.99 1020.10
1014.64 1015.35 1015.80 1015.91 1015.66 1015.10 1014.29 1013.38 1012.49 1011.76 1011.27 1011.05 1011.07 1011.26 1011.54 1011.81 1012.02 1012.13 1012.18 1012.21 1012.29 1012.46 1012.75 1013.16 1013.66 1014.19 1014.70 1015.14 1015.50 1015.79 1016.03 1016.27 1016.53 1016.84 1017.18 1017.54 1017.89 1018.19 1018.44 1018.62 1018.78 1018.92 1019.08 1019.27 1019.50 1019.74 1019.97 1020.15 1020.27
1014.91 1015.42 1015.65 1015.55 1015.15 1014.49 1013.68 1012.82 1012.03 1011.43 1011.07 1010.96 1011.06 1011.29 1011.59 1011.88 1012.09 1012.22 1012.30 1012.36 1012.47 1012.67 1012.98 1013.38 1013.86 1014.34 1014.80 1015.20 1015.52 1015.78 1016.02 1016.28 1016.58 1016.93 1017.33 1017.74 1018.14 1018.49 1018.76 1018.96 1019.10 1019.22 1019.33 1019.47 1019.63 1019.82 1020.01 1020.17 1020.29
1014.99 1015.31 1015.34 1015.09 1014.57 1013.87 1013.07 1012.28 1011.60 1011.10 1010.83 1010.78 1010.90 1011.15 1011.45 1011.73 1011.95 1012.12 1012.25 1012.37 1012.54 1012.80 1013.14 1013.56 1014.02 1014.48 1014.90 1015.25 1015.54 1015.79 1016.03 1016.30 1016.62 1017.02 1017.46 1017.93 1018.38 1018.76 1019.06 1019.27 1019.39 1019.47 1019.53 1019.59 1019.69 1019.81 1019.94 1020.08 1020.20
1014.90 1015.06 1014.93 1014.56 1013.98 1013.27 1012.52 1011.80 1011.21 1010.78 1010.56 1010.52 1010.64 1010.86 1011.13 1011.39 1011.63 1011.84 1012.03 1012.24 1012.50 1012.82 1013.22 1013.67 1014.14 1014.59 1014.99 1015.32 1015.59 1015.83 1016.06 1016.34 1016.68 1017.10 1017.57 1018.06 1018.54 1018.95 1019.27 1019.48 1019.59 1019.64 1019.65 1019.66 1019.69 1019.75 1019.84 1019.95 1020.06
1014.69 1014.70 1014.45 1014.01 1013.41 1012.74 1012.05 1011.41 1010.88 1010.50 1010.29 1010.23 1010.30 1010.46 1010.68 1010.92 1011.17 1011.42 1011.68 1011.98 1012.34 1012.75 1013.22 1013.71 1014.21 1014.67 1015.07 1015.40 1015.67 1015.90 1016.12 1016.39 1016.73 1017.13 1017.60 1018.09 1018.57 1019.00 1019.33 1019.55 1019.67 1019.71 1019.70 1019.68 1019.67 1019.70 1019.76 1019.85 1019.97
1014.42 1014.29 1013.97 1013.48 1012.90 1012.28 1011.66 1011.10 1010.63 1010.27 1010.04 1009.93 1009.93 1010.02 1010.17 1010.38 1010.64 1010.93 1011.26 1011.64 1012.08 1012.58 1013.11 1013.67 1014.21 1014.70 1015.12 1015.47 1015.74 1015.97 1016.19 1016.43 1016.74 1017.10 1017.53 1017.99 1018.45 1018.86 1019.21 1019.46 1019.61 1019.67 1019.69 1019.67 1019.67 1019.69 1019.75 1019.85 1019.98
1014.14 1013.91 1013.52 1013.03 1012.48 1011.92 1011.39 1010.89 1010.46 1010.10 1009.83 1009.66 1009.57 1009.58 1009.68 1009.85 1010.10 1010.41 1010.80 1011.24 1011.75 1012.31 1012.90 1013.50 1014.09 1014.62 1015.09 1015.47 1015.77 1016.02 1016.23 1016.44 1016.69 1016.98 1017.34 1017.74 1018.15 1018.56 1018.91 1019.20 1019.41 1019.54 1019.61 1019.66 1019.70 1019.76 1019.85 1019.98 1020.14
1013.90 1013.58 1013.16 1012.67 1012.17 1011.68 1011.22 1010.77 1010.37 1010.00 1009.68 1009.43 1009.27 1009.20 1009.23 1009.37 1009.60 1009.93 1010.33 1010.81 1011.35 1011.93 1012.56 1013.20 1013.82 1014.41 1014.93 1015.37 1015.72 1015.99 1016.21 1016.39 1016.58 1016.79 1017.06 1017.38 1017.74 1018.12 1018.49 1018.82 1019.10 1019.33 1019.50 1019.63 1019.75 1019.88 1020.02 1020.20 1020.40
1013.74 1013.35 1012.91 1012.45 1012.00 1011.57 1011.16 1010.75 1010.35 1009.96 1009.59 1009.27 1009.04 1008.90 1008.88 1008.98 1009.19 1009.50 1009.90 1010.37 1010.90 1011.48 1012.10 1012.75 1013.40 1014.03 1014.62 1015.13 1015.55 1015.87 1016.11 1016.28 1016.42 1016.56 1016.74 1016.97 1017.27 1017.62 1018.00 1018.38 1018.75 1019.07 1019.36 1019.60 1019.81 1020.02 1020.22 1020.45 1020.70
1013.64 1013.22 1012.78 1012.36 1011.97 1011.60 1011.23 1010.85 1010.44 1010.01 1009.58 1009.20 1008.90 1008.71 1008.64 1008.70 1008.89 1009.17 1009.54 1009.96 1010.44 1010.97 1011.55 1012.18 1012.84 1013.51 1014.16 1014.75 1015.26 1015.65 1015.94 1016.12 1016.23 1016.32 1016.43 1016.59 1016.83 1017.15 1017.53 1017.96 1018.39 1018.82 1019.20 1019.54 1019.85 1020.13 1020.40 1020.67 1020.96
1013.58 1013.18 1012.79 1012.43 1012.10 1011.78 1011.45 1011.07 1010.64 1010.16 1009.69 1009.24 1008.89 1008.65 1008.55 1008.58 1008.74 1008.98 1009.28 1009.63 1010.03 1010.47 1010.97 1011.54 1012.18 1012.87 1013.57 1014.25 1014.85 1015.34 1015.70 1015.93 1016.06 1016.13 1016.19 1016.30 1016.49 1016.78 1017.17 1017.62 1018.11 1018.60 1019.06 1019.48 1019.85 1020.19 1020.50 1020.82 1021.14
1013.54 1013.20 1012.89 1012.62 1012.38 1012.12 1011.82 1011.44 1010.98 1010.45 1009.92 1009.42 1009.02 1008.75 1008.63 1008.64 1008.76 1008.96 1009.19 1009.45 1009.73 1010.05 1010.44 1010.93 1011.51 1012.19 1012.93 1013.68 1014.38 1014.97 1015.43 1015.74 1015.91 1016.00 1016.06 1016.15 1016.32 1016.58 1016.96 1017.42 1017.94 1018.46 1018.97 1019.43 1019.83 1020.20 1020.54 1020.87 1021.22
1013.45 1013.23 1013.05 1012.91 1012.78 1012.60 1012.33 1011.95 1011.46 1010.89 1010.30 1009.76 1009.33 1009.03 1008.90 1008.89 1008.99 1009.14 1009.30 1009.46 1009.62 1009.80 1010.06 1010.43 1010.93 1011.57 1012.31 1013.10 1013.88 1014.58 1015.14 1015.55 1015.81 1015.95 1016.05 1016.15 1016.31 1016.57 1016.93 1017.39 1017.91 1018.44 1018.95 1019.42 1019.83 1020.19 1020.54 1020.87 1021.23
1013.30 1013.25 1013.24 1013.26 1013.26 1013.18 1012.96 1012.59 1012.08 1011.47 1010.84 1010.27 1009.81 1009.50 1009.36 1009.35 1009.43 1009.55 1009.64 1009.71 1009.74 1009.79 1009.90 1010.13 1010.52 1011.09 1011.79 1012.60 1013.43 1014.20 1014.87 1015.38 1015.74 1015.97 1016.12 1016.26 1016.45 1016.71 1017.07 1017.52 1018.02 1018.53 1019.02 1019.47 1019.87 1020.22 1020.54 1020.87 1021.23
1013.09 1013.22 1013.42 1013.63 1013.78 1013.81 1013.66 1013.32 1012.80 1012.17 1011.51 1010.91 1010.44 1010.14 1010.00 1010.00 1010.08 1010.17 1010.22 1010.20 1010.13 1010.05 1010.02 1010.10 1010.36 1010.82 1011.45 1012.22 1013.06 1013.88 1014.62 1015.22 1015.68 1016.01 1016.25 1016.45 1016.68 1016.97 1017.33 1017.76 1018.24 1018.73 1019.20 1019.62 1019.99 1020.32 1020.63 1020.94 1021.29
1012.82 1013.16 1013.56 1013.97 1014.28 1014.43 1014.36 1014.07 1013.57 1012.94 1012.27 1011.67 1011.20 1010.90 1010.79 1010.80 1010.89 1010.97 1010.99 1010.92 1010.77 1010.58 1010.42 1010.36 1010.47 1010.80 1011.32 1012.02 1012.82 1013.64 1014.42 1015.09 1015.63 1016.05 1016.38 1016.66 1016.95 1017.27 1017.65 1018.09 1018.55 1019.02 1019.46 1019.86 1020.21 1020.52 1020.82 1021.13 1021.47
1012.56 1013.08 1013.68 1014.26 1014.73 1015.00 1015.02 1014.79 1014.33 1013.72 1013.07 1012.48 1012.03 1011.76 1011.66 1011.70 1011.81 1011.90 1011.91 1011.81 1011.60 1011.33 1011.06 1010.88 1010.86 1011.04 1011.44 1012.03 1012.75 1013.53 1014.30 1015.01 1015.61 1016.10 1016.51 1016.87 1017.22 1017.60 1018.00 1018.45 1018.91 1019.37 1019.81 1020.20 1020.54 1020.85 1021.15 1021.45 1021.79
1012.38 1013.05 1013.80 1014.52 1015.12 1015.50 1015.60 1015.43 1015.03 1014.47 1013.86 1013.30 1012.89 1012.65 1012.58 1012.65 1012.78 1012.89 1012.90 1012.80 1012.56 1012.24 1011.90 1011.63 1011.49 1011.54 1011.81 1012.27 1012.89 1013.60 1014.33 1015.02 1015.65 1016.19 1016.67 1017.10 1017.51 1017.93 1018.38 1018.84 1019.32 1019.79 1020.23 1020.62 1020.98 1021.30 1021.60 1021.90 1022.23
1012.34 1013.11 1013.95 1014.77 1015.44 1015.90 1016.08 1015.98 1015.65 1015.15 1014.61 1014.11 1013.74 1013.54 1013.51 1013.60 1013.75 1013.88 1013.91 1013.82 1013.59 1013.26 1012.89 1012.55 1012.33 1012.28 1012.43 1012.78 1013.28 1013.89 1014.55 1015.21 1015.83 1016.39 1016.90 1017.38 1017.85 1018.32 1018.80 1019.30 1019.79 1020.27 1020.73 1021.14 1021.50 1021.83 1022.14 1022.45 1022.77
1012.51 1013.31 1014.18 1015.02 1015.73 1016.22 1016.46 1016.43 1016.17 1015.77 1015.31 1014.89 1014.58 1014.43 1014.42 1014.54 1014.70 1014.84 1014.89 1014.82 1014.62 1014.31 1013.95 1013.61 1013.35 1013.24 1013.30 1013.54 1013.94 1014.45 1015.03 1015.63 1016.22 1016.78 1017.31 1017.82 1018.31 1018.82 1019.33 1019.85 1020.36 1020.86 1021.32 1021.74 1022.11 1022.45 1022.76 1023.06 1023.35
1012.89 1013.67 1014.50 1015.31 1016.00 1016.49 1016.76 1016.79 1016.62 1016.31 1015.95 1015.63 1015.40 1015.29 1015.32 1015.44 1015.61 1015.76 1015.83 1015.79 1015.63 1015.37 1015.06 1014.75 1014.51 1014.38 1014.41 1014.58 1014.90 1015.32 1015.82 1016.36 1016.90 1017.44 1017.96 1018.47 1018.98 1019.49 1020.02 1020.54 1021.06 1021.56 1022.02 1022.43 1022.80 1023.12 1023.41 1023.68 1023.93
1013.48 1014.18 1014.92 1015.64 1016.25 1016.71 1016.99 1017.07 1016.99 1016.79 1016.56 1016.34 1016.19 1016.15 1016.20 1016.33 1016.50 1016.64 1016.73 1016.72 1016.61 1016.43 1016.19 1015.96 1015.78 1015.69 1015.71 1015.86 1016.13 1016.50 1016.93 1017.40 1017.90 1018.39 1018.89 1019.38 1019.89 1020.39 1020.91 1021.42 1021.92 1022.39 1022.82 1023.21 1023.54 1023.82 1024.06 1024.28 1024.48
1014.21 1014.79 1015.40 1015.98 1016.50 1016.90 1017.16 1017.29 1017.30 1017.23 1017.12 1017.03 1016.98 1016.99 1017.08 1017.21 1017.37 1017.50 1017.59 1017.62 1017.57 1017.47 1017.33 1017.20 1017.11 1017.09 1017.16 1017.33 1017.58 1017.91 1018.30 1018.72 1019.16 1019.61 1020.07 1020.54 1021.01 1021.49 1021.97 1022.45 1022.91 1023.33 1023.71 1024.04 1024.31 1024.53 1024.70 1024.84 1024.96
Thickness
5778 5781 5780 5772 5750 5728 5730 5747 5760 5767 5775 5787 5792 5790 5784 5780 5773 5772 5793 5801 5797 5789 5782 5777 5774 5772 5771 5770 5769 5768 5766 5764 5763 5762 5760 5759 5757 5756 5754 5753 5752 5751 5749 5747 5746 5745 5744 5743 5742
5776 5778 5770 5754 5729 5715 5727 5749 5759 5768 5780 5790 5792 5789 5784 5783 5789 5788 5792 5796 5794 5787 5781 5776 5773 5771 5769 5767 5766 5764 5763 5761 5759 5758 5757 5755 5754 5753 5751 5750 5749 5747 5745 5744 5743 5742 5741 5740 5739
5773 5772 5752 5734 5720 5718 5734 5753 5761 5774 5787 5789 5786 5787 5783 5782 5788 5789 5794 5795 5791 5785 5779 5775 5771 5769 5767 5765 5763 5761 5760 5758 5757 5755 5754 5752 5751 5750 5748 5747 5745 5743 5741 5740 5739 5738 5738 5737 5736
5764 5754 5739 5723 5721 5732 5744 5756 5764 5769 5781 5791 5787 5779 5785 5793 5793 5794 5795 5793 5788 5782 5778 5774 5770 5768 5766 5764 5761 5759 5757 5756 5754 5752 5751 5749 5748 5747 5746 5744 5742 5740 5737 5736 5735 5735 5734 5734 5733
5754 5737 5722 5711 5722 5739 5751 5761 5767 5765 5772 5784 5784 5775 5777 5790 5796 5795 5793 5790 5786 5781 5777 5773 5770 5767 5765 5762 5760 5758 5756 5754 5752 5750 5749 5747 5746 5744 5743 5741 5739 5736 5734 5732 5732 5731 5731 5730 5729
5732 5724 5706 5704 5722 5741 5753 5763 5765 5765 5771 5779 5779 5771 5773 5786 5789 5790 5790 5787 5784 5780 5777 5773 5769 5766 5764 5761 5759 5757 5754 5752 5750 5749 5747 5745 5744 5742 5740 5738 5736 5733 5731 5729 5728 5727 5727 5726 5725
5722 5713 5706 5714 5724 5736 5753 5764 5763 5762 5766 5775 5781 5768 5770 5779 5786 5788 5787 5784 5780 5778 5775 5772 5768 5765 5763 5760 5758 5755 5753 5751 5749 5747 5745 5743 5741 5740 5738 5736 5733 5730 5727 5726 5725 5724 5723 5722 5721
5724 5711 5709 5712 5721 5735 5755 5762 5765 5765 5768 5782 5783 5768 5766 5778 5784 5784 5782 5778 5776 5775 5773 5771 5768 5765 5762 5760 5757 5754 5752 5750 5748 5745 5743 5741 5739 5737 5735 5733 5731 5728 5725 5723 5721 5721 5719 5718 5717
5721 5699 5697 5711 5721 5737 5751 5754 5761 5771 5772 5778 5782 5782 5784 5785 5782 5778 5775 5772 5771 5771 5771 5770 5768 5765 5762 5759 5757 5754 5751 5749 5746 5744 5742 5739 5737 5735 5733 5731 5728 5725 5723 5720 5718 5717 5715 5714 5713
5706 5691 5702 5720 5731 5740 5743 5747 5755 5761 5762 5770 5776 5782 5787 5782 5777 5775 5773 5771 5770 5769 5770 5770 5768 5765 5762 5759 5756 5754 5751 5748 5746 5743 5741 5738 5736 5733 5731 5729 5726 5724 5721 5718 5716 5714 5712 5711 5709
5703 5699 5710 5722 5732 5737 5737 5744 5754 5754 5754 5766 5772 5775 5780 5777 5775 5774 5774 5775 5775 5774 5772 5771 5769 5766 5762 5759 5757 5754 5751 5748 5745 5742 5740 5737 5734 5732 5729 5727 5725 5722 5719 5716 5713 5711 5710 5708 5706
5698 5706 5714 5723 5732 5733 5735 5741 5747 5752 5763 5780 5784 5783 5781 5777 5776 5776 5775 5775 5775 5774 5773 5771 5770 5767 5763 5760 5757 5754 5751 5747 5745 5742 5740 5737 5733 5731 5728 5726 5723 5720 5717 5714 5711 5708 5707 5706 5704
5696 5704 5715 5722 5726 5729 5734 5736 5744 5754 5774 5782 5786 5783 5782 5780 5778 5778 5779 5777 5776 5775 5774 5772 5769 5767 5764 5760 5757 5754 5751 5748 5745 5742 5739 5736 5733 5730 5727 5725 5722 5719 5716 5713 5710 5708 5706 5704 5702
5698 5704 5712 5718 5723 5730 5732 5738 5741 5758 5774 5778 5780 5780 5781 5779 5778 5777 5777 5776 5776 5776 5774 5773 5769 5767 5764 5760 5757 5754 5751 5748 5745 5742 5739 5736 5733 5730 5727 5724 5721 5718 5715 5713 5710 5707 5704 5701 5700
5699 5701 5706 5715 5722 5729 5730 5729 5741 5763 5769 5770 5774 5777 5777 5777 5778 5778 5780 5779 5779 5778 5776 5774 5771 5767 5764 5760 5757 5754 5751 5747 5744 5741 5739 5736 5733 5730 5727 5723 5720 5717 5713 5711 5708 5705 5702 5699 5696
5692 5691 5692 5712 5723 5729 5724 5721 5747 5762 5763 5762 5767 5772 5773 5775 5779 5780 5780 5780 5780 5779 5776 5775 5774 5769 5765 5761 5757 5754 5751 5747 5743 5740 5738 5735 5732 5729 5726 5722 5719 5715 5712 5709 5706 5703 5699 5695 5692
5673 5675 5687 5703 5720 5725 5722 5723 5744 5756 5756 5757 5761 5767 5771 5772 5776 5779 5781 5781 5781 5780 5777 5774 5773 5770 5766 5761 5757 5753 5750 5746 5743 5740 5737 5734 5730 5727 5724 5720 5716 5713 5709 5706 5703 5699 5695 5690 5687
5664 5674 5683 5692 5711 5717 5717 5722 5735 5746 5749 5752 5757 5762 5766 5770 5775 5780 5781 5780 5779 5778 5776 5774 5771 5769 5765 5760 5756 5752 5747 5742 5739 5737 5734 5731 5728 5724 5721 5717 5713 5709 5705 5701 5698 5694 5690 5685 5682
5671 5674 5677 5690 5708 5711 5713 5716 5727 5738 5742 5745 5750 5755 5761 5768 5775 5776 5777 5778 5776 5773 5773 5773 5771 5769 5764 5759 5753 5748 5744 5739 5735 5733 5731 5728 5724 5720 5716 5712 5708 5704 5700 5696 5692 5687 5683 5677 5675
5666 5668 5675 5689 5705 5710 5709 5710 5721 5728 5733 5739 5744 5750 5756 5760 5764 5768 5771 5772 5771 5772 5772 5771 5770 5769 5765 5761 5755 5748 5741 5735 5731 5728 5726 5723 5719 5715 5711 5707 5702 5698 5694 5689 5686 5682 5676 5671 5668
5662 5666 5675 5682 5694 5703 5706 5701 5707 5717 5725 5731 5736 5742 5748 5752 5755 5758 5762 5765 5766 5766 5768 5769 5768 5766 5763 5758 5751 5743 5734 5729 5726 5722 5718 5716 5713 5709 5705 5701 5695 5691 5689 5684 5680 5676 5671 5665 5659
5654 5673 5677 5681 5678 5675 5691 5677 5692 5703 5712 5718 5722 5728 5734 5740 5745 5748 5752 5755 5758 5762 5765 5765 5765 5762 5758 5753 5747 5740 5732 5726 5723 5718 5713 5709 5705 5701 5697 5693 5689 5685 5681 5677 5673 5669 5666 5661 5654
5663 5676 5677 5679 5676 5673 5680 5674 5678 5695 5700 5706 5712 5718 5723 5729 5734 5738 5742 5745 5750 5754 5757 5759 5757 5755 5752 5747 5742 5734 5727 5722 5717 5710 5703 5699 5694 5691 5688 5685 5681 5676 5672 5668 5664 5660 5657 5654 5648
5671 5670 5668 5660 5660 5658 5674 5670 5672 5684 5692 5699 5704 5709 5713 5719 5725 5729 5733 5737 5740 5744 5747 5749 5748 5745 5742 5738 5733 5726 5720 5715 5707 5700 5693 5688 5683 5679 5677 5673 5670 5666 5662 5658 5654 5649 5646 5643 5638
5664 5648 5636 5642 5638 5648 5668 5667 5668 5683 5690 5693 5695 5698 5703 5708 5713 5717 5721 5724 5727 5731 5734 5736 5735 5733 5731 5728 5723 5718 5712 5706 5699 5691 5684 5677 5672 5667 5664 5662 5658 5653 5649 5646 5642 5638 5633 5630 5625
5657 5652 5635 5634 5636 5643 5659 5658 5666 5677 5683 5686 5688 5690 5694 5697 5701 5703 5706 5709 5712 5715 5718 5720 5720 5719 5718 5715 5711 5706 5700 5693 5686 5680 5674 5666 5661 5655 5652 5649 5645 5641 5637 5633 5629 5625 5620 5616 5611
5654 5651 5656 5642 5644 5639 5645 5656 5662 5671 5673 5675 5677 5679 5681 5684 5687 5689 5692 5694 5697 5699 5701 5703 5704 5703 5701 5699 5695 5689 5684 5678 5671 5665 5659 5653 5648 5643 5639 5636 5631 5626 5622 5618 5614 5610 5604 5601 5596
5662 5653 5641 5635 5629 5629 5637 5643 5649 5658 5660 5663 5665 5666 5667 5670 5673 5675 5677 5679 5681 5683 5684 5686 5686 5684 5682 5680 5676 5672 5667 5663 5657 5651 5645 5639 5633 5629 5624 5620 5616 5611 5606 5603 5598 5593 5589 5585 5580
5653 5649 5638 5628 5631 5623 5621 5630 5649 5654 5655 5653 5653 5653 5654 5655 5657 5658 5660 5661 5663 5665 5666 5666 5666 5665 5663 5660 5657 5654 5649 5645 5640 5634 5628 5622 5617 5613 5608 5603 5599 5594 5590 5585 5581 5576 5572 5569 5564
5652 5646 5639 5632 5625 5624 5621 5625 5643 5647 5647 5645 5642 5642 5641 5642 5643 5643 5643 5644 5645 5646 5646 5646 5645 5644 5642 5640 5638 5635 5631 5626 5621 5615 5609 5604 5598 5593 5589 5584 5580 5575 5571 5567 5563 5559 5555 5551 5548